SARSAT 13 (METOP-B)

Last updated on Sun Apr 12 2026 00:02:39 GMT+0000 (Coordinated Universal Time)

1 38771U 12049A 26101.45846407 .00000076 00000+0 54524-4 0 9996 2 38771 98.6574 154.2681 0002800 155.2020 204.9292 14.21429604703785
UTC large
Height (km)
Speed (km/s)
/
Latitude / Longitude
Inclination (degrees)
Orbital Period (minutes)
Azimuth
Elevation
Range (km)
Doppler Factor

Next 0 passes for location: London (51.5072 / 0.1276)

Sorry there are no passes over London.